Probability
0 0 0 0 0 0 0 0 0 0 0 0 0 0 0 0 0 0 0 0 0 0 0 0 0 0 0 0 0 0 0 0 0 0 0 0 0 0
0 0 0 0 0 0 0 0 0 0 0 0 0 0 0 0 0 0 0 0 0 0 0 0 0 0 0 0 0 0 0 0 0 0 0 0 0 0
0 0 0 0 0 0 0 0 0 0 0 0 0 0 0 0 0 0 0 0 0 0 0 0 0 0 0 0 0 0 0 0 0 0 0 0 0 0
0 0 0 0 0 0 0 0 0 0 0 0 0 0 0 0 0 0 0 0 0 0 0 0 0 0 0 0 0 0 0 0 0 0 0 0 0 0
0 0 0 0 0 0 0 0 0 0 0 0 0 0 0 0 0 0 0 0 0 0 0 0 0 0 0 0 0 0 0 0 0 0 0 0 0 0
0 0 0 0 0 0 0 0 0 0 0 0 0 0 0 0 0 0 0 0 0 0 0 0 0 0 0 0 0 0 0 0 0 0 0 0 0 0
0 0 0 0 0 0 0 0 0 0 0 0 0 0 0 0 0 0 0 0 0 0 0 0 0 0 0 0 0 0 0 0 0 0 0 0 0 0
0 0 0 0 0 0 0 0 0 0 0 0 0 0 0 0 0 0 0 0 0 0 0 0 0 0 0 0 0 0 0 0 0 0 0 0 0 0
0 0 0 0 0 0 0 0 0 0 0 0 0 0 0 0 0 0 0 0 0 0 0 0 0 0 0 0 0 0 0 0 0 0 0 0 0 0
0 0 0 0 0 0 0 0 0 0 0 0 0 0 0 0 0 0 0 0 0 0 0 0 0 0 0 0 0 0 0 0 0 0 0 0 0 0
0 0 0 0 0 0 0 0 0 0 0 0 0 0 0 0 0 0 0 0 0 0 0 0 0 0 0 0 0 0 0 0 0 0 0 0 0 0
0 0 0 0 0 0 0 0 0 0 0 0 0 0 0 0 0 0 0 0 0 0 0 0 0 0 0 0 0 0 0 0 0 0 0 0 0 0
0 0 0 0 0 0 0 0 0 0 0 0 0 0 0 0 0 0 0 0 0 0 0 0 0 0 0 0 0 0 0 0 0 0 0 0 0 0
0 0 0 0 0 0 0 0 0 0 0 0 0 0 0 0 0 0 0 0 0 0 0 0 0 0 0 0 0 0 0 0 0 0 0 0 0 0
0 0 0 0 0 0 0 0 0 0 0 0 0 0 0 0 0 0 0 0 0 0 0 0 0 0 0 0 0 0 0 0 0 0 0 0 0 0
0 0 0 0 0 0 0 0 0 0 0 0 0 0 0 0 0 0 0 0 0 0 0 0 0 0 0 0 0 0 0 0 0 0 0 0 0 0
0 0 0 0 0 0 0 0 0 0 0 0 0 0 0 0 0 0 0 0 0 0 0 0 0 0 0 0 0 0 0 0 0 0 0 0 0 0
0 0 0 0 0 0 0 0 0 0 0 0 0 0 0 0 0 0 0 0 0 0 0 0 0 0 0 0 0 0 0 0 0 0 0 0 0 0
0 0 0 0 0 0 0 0 0 0 0 0 0 0 0 0 0 0 0 0 0 0 0 0 0 0 0 0 0 0 0 0 0 0 0 0 0 0
0 0 0 0 0 0 0 0 0 0 0 0 0 0 0 0 0 0 0 0 0 0 0 0 0 0 0 0 0 0 0 0 0 0 0 0 0 0
0 0 0 0 0 0 0 0 0 0 0 0 0 0 0 0 0 0 0 0 0 0 0 0 0 0 0 0 0 0 0 0 0 0 0 0 0 0
0 0 0 0 0 0 0 0 0 0 0 0 0 0 0 0 0 0 0 0 0 0 0 0 0 0 0 0 0 0 0 0 0 0 0 0 0 0
0 0 0 0 0 0 0 0 0 0 0 0 0 0 0 0 0 0 0 0 0 0 0 0 0 0 0 0 0 0 0 0 0 0 0 0 0 0
Height
5686 5686 5686 5685 5685 5685 5685 5685 5685 5685 5686 5686 5686 5686 5686 5688 5688 5689 5690 5691 5691 5691 5691 5692 5692 5693 5693 5693 5692 5692 5692 5691 5690 5689 5688 5687 5685 5683
5676 5676 5676 5676 5676 5675 5675 5675 5675 5675 5675 5676 5676 5676 5676 5676 5677 5677 5677 5678 5678 5679 5679 5679 5680 5680 5679 5679 5679 5678 5678 5677 5676 5675 5673 5672 5670 5668
5666 5666 5666 5666 5666 5665 5665 5665 5665 5664 5664 5665 5665 5665 5665 5665 5665 5665 5665 5666 5666 5666 5666 5666 5666 5666 5666 5665 5665 5664 5663 5662 5661 5660 5658 5656 5654 5653
5656 5656 5656 5656 5656 5655 5655 5655 5654 5654 5653 5654 5654 5654 5654 5654 5653 5653 5653 5653 5653 5653 5653 5653 5653 5653 5652 5652 5651 5650 5649 5647 5646 5644 5643 5641 5639 5636
5645 5646 5646 5646 5646 5645 5645 5644 5644 5643 5643 5643 5643 5643 5643 5643 5642 5642 5641 5641 5641 5641 5640 5640 5640 5639 5638 5638 5637 5636 5634 5633 5631 5629 5626 5624 5622 5620
5635 5635 5635 5635 5635 5635 5635 5634 5634 5633 5633 5632 5633 5633 5632 5631 5631 5630 5630 5630 5629 5628 5627 5627 5626 5625 5624 5624 5623 5621 5619 5617 5615 5612 5610 5607 5605 5604
5624 5625 5625 5625 5625 5625 5624 5624 5624 5623 5623 5622 5622 5622 5621 5621 5620 5619 5619 5618 5617 5616 5614 5613 5612 5611 5610 5609 5607 5606 5604 5601 5599 5596 5593 5591 5589 5587
5613 5614 5614 5614 5614 5614 5614 5613 5613 5613 5612 5612 5611 5611 5610 5609 5609 5607 5606 5606 5605 5604 5601 5600 5598 5596 5595 5593 5591 5590 5587 5585 5583 5580 5577 5575 5573 5571
5603 5603 5603 5603 5603 5603 5603 5602 5602 5601 5601 5601 5600 5600 5599 5598 5597 5596 5594 5593 5592 5590 5588 5587 5584 5582 5580 5577 5575 5573 5571 5569 5567 5564 5561 5559 5556 5554
5591 5592 5592 5592 5591 5591 5591 5591 5591 5590 5590 5589 5589 5588 5587 5585 5585 5584 5582 5581 5579 5577 5575 5574 5571 5568 5565 5562 5560 5557 5555 5553 5551 5548 5546 5543 5541 5538
5580 5580 5580 5580 5581 5580 5580 5580 5580 5579 5578 5578 5577 5575 5574 5574 5573 5572 5570 5569 5567 5565 5563 5561 5558 5556 5552 5549 5546 5543 5540 5538 5535 5533 5530 5528 5526 5524
5569 5569 5569 5569 5569 5568 5568 5568 5568 5568 5567 5567 5566 5564 5564 5562 5561 5560 5558 5556 5554 5553 5551 5548 5545 5542 5540 5536 5532 5529 5526 5523 5521 5518 5516 5514 5512 5510
5557 5557 5557 5558 5557 5557 5557 5557 5557 5557 5556 5556 5555 5554 5553 5551 5550 5548 5546 5544 5542 5541 5538 5536 5533 5529 5526 5524 5521 5516 5513 5511 5508 5505 5502 5500 5498 5496
5546 5546 5546 5546 5546 5546 5546 5546 5546 5546 5545 5545 5544 5543 5542 5540 5539 5537 5535 5533 5530 5528 5526 5523 5520 5517 5514 5511 5508 5505 5502 5498 5496 5493 5490 5488 5485 5483
5534 5534 5534 5534 5534 5534 5534 5534 5534 5534 5534 5533 5533 5532 5530 5529 5527 5525 5523 5521 5518 5516 5513 5510 5508 5504 5501 5499 5496 5493 5491 5487 5484 5481 5478 5476 5474 5472
5523 5523 5523 5522 5522 5522 5522 5523 5522 5522 5522 5522 5521 5520 5519 5517 5515 5513 5511 5509 5507 5504 5501 5498 5495 5492 5490 5487 5484 5482 5479 5476 5473 5470 5467 5464 5462 5460
5511 5511 5511 5511 5511 5511 5511 5511 5511 5511 5511 5511 5510 5509 5508 5506 5504 5502 5500 5497 5495 5493 5490 5487 5484 5481 5478 5476 5473 5470 5467 5465 5462 5459 5456 5454 5451 5449
5500 5500 5500 5500 5500 5500 5500 5500 5500 5500 5500 5500 5499 5498 5497 5495 5493 5491 5489 5487 5484 5482 5479 5477 5474 5471 5468 5465 5463 5460 5457 5454 5451 5448 5445 5443 5441 5438
5489 5489 5490 5490 5489 5489 5489 5489 5490 5489 5489 5489 5488 5487 5486 5485 5483 5481 5479 5476 5474 5472 5469 5467 5464 5461 5458 5456 5453 5449 5446 5443 5440 5437 5434 5432 5430 5428
5479 5479 5479 5479 5479 5479 5479 5479 5479 5479 5479 5478 5478 5477 5475 5474 5473 5471 5469 5467 5464 5462 5460 5457 5455 5452 5449 5446 5443 5440 5436 5433 5430 5427 5424 5421 5419 5417
5468 5469 5469 5469 5469 5469 5469 5469 5469 5469 5469 5468 5467 5466 5465 5464 5462 5461 5459 5457 5455 5452 5450 5448 5445 5442 5439 5436 5434 5430 5426 5422 5420 5417 5415 5412 5410 5408
5458 5459 5460 5460 5460 5460 5459 5459 5459 5459 5459 5458 5458 5456 5455 5454 5453 5451 5449 5448 5446 5444 5441 5439 5436 5433 5430 5427 5424 5421 5417 5414 5410 5407 5405 5403 5401 5399
5449 5449 5450 5450 5450 5450 5450 5450 5450 5450 5449 5449 5448 5447 5446 5445 5443 5442 5441 5439 5437 5435 5432 5430 5427 5424 5421 5418 5415 5411 5408 5405 5402 5399 5397 5394 5392 5390
Wind_Speed
37 36 36 37 37 36 36 36 37 38 38 38 39 40 40 40 42 43 44 45 45 45 46 47 47 48 49 50 50 51 51 51 52 52 53 53 53 54
37 37 37 37 38 38 38 37 38 39 39 39 39 40 40 41 41 41 42 44 45 45 46 47 48 48 49 50 51 51 52 53 53 53 54 54 55 56
37 37 38 38 38 39 38 38 39 39 39 39 40 41 42 42 41 41 41 42 44 45 46 47 48 49 49 50 51 51 52 53 53 54 55 55 56 57
39 39 38 38 38 38 38 38 38 39 39 40 40 40 41 43 43 43 42 43 43 45 46 47 48 49 49 50 51 52 53 53 54 55 56 57 57 57
40 39 38 37 37 37 37 37 37 38 38 39 39 40 40 41 42 42 42 42 43 44 45 47 48 48 49 50 51 52 53 55 56 56 57 57 57 57
39 38 37 37 37 37 38 38 37 37 38 39 39 39 40 40 41 41 41 42 43 45 46 47 48 49 50 51 52 54 55 56 56 56 56 57 57 57
39 38 37 37 38 38 38 38 38 38 38 38 39 39 39 40 41 42 42 43 44 45 47 48 49 50 51 52 53 54 55 55 56 56 56 56 56 56
39 39 39 38 38 37 37 37 38 38 39 39 39 38 39 41 42 42 43 43 44 45 47 48 49 50 51 53 53 54 54 55 55 55 55 56 56 56
39 39 39 39 38 38 38 38 38 38 39 40 40 40 41 42 42 42 43 45 45 46 47 48 49 50 52 53 54 54 54 54 54 54 54 54 54 54
39 39 39 39 39 38 38 38 39 39 39 40 41 41 41 41 41 42 42 43 44 45 46 46 47 48 49 50 51 52 53 53 53 53 52 52 52 52
39 39 39 38 38 39 39 39 39 39 38 39 39 39 39 40 40 41 41 41 41 42 43 45 46 46 47 48 48 49 49 50 51 51 51 51 50 49
39 39 39 39 39 39 39 39 38 38 38 38 37 37 38 39 39 40 41 41 41 41 42 44 45 45 45 46 47 48 48 48 49 49 49 49 49 48
38 38 39 39 39 39 39 38 38 38 37 37 37 38 38 38 39 40 41 42 42 42 42 43 44 45 45 45 45 46 46 46 46 46 47 47 47 48
37 38 38 39 40 39 39 39 38 38 38 38 38 38 38 39 40 40 41 42 42 43 43 43 44 44 44 44 43 44 44 44 44 44 44 45 45 46
37 38 38 38 38 38 38 38 38 38 38 39 39 39 39 40 41 41 41 41 41 42 42 42 42 42 42 42 41 42 42 42 42 42 42 41 42 42
38 38 38 38 38 38 38 38 38 38 39 39 38 38 39 39 40 40 40 40 40 40 41 41 40 39 39 40 40 40 40 40 40 40 39 39 40 40
38 38 37 37 37 38 38 38 38 38 38 38 38 38 38 38 38 39 39 39 38 38 38 38 37 37 38 38 38 38 38 38 39 39 39 38 38 38
37 37 36 36 36 37 37 37 37 37 36 36 37 36 36 37 37 37 37 38 37 36 36 35 35 35 36 36 36 36 36 36 37 38 38 38 37 37
35 35 35 35 35 35 35 36 36 35 35 36 36 36 36 36 36 36 36 36 36 35 34 34 34 34 34 34 35 36 36 36 36 37 36 36 36 36
33 33 33 33 33 33 34 34 34 34 34 35 35 36 36 35 35 35 34 34 34 33 33 34 34 34 34 34 34 35 36 36 36 35 35 34 34 34
32 32 32 32 32 32 32 32 33 33 33 34 34 34 34 34 34 34 33 32 32 32 32 33 33 33 34 34 34 34 35 35 35 34 33 32 32 32
32 32 31 31 31 31 31 31 31 32 32 32 32 33 32 32 32 32 31 31 31 31 31 32 32 33 33 34 33 33 33 34 34 32 31 30 30 30
30 31 31 30 31 31 31 31 30 30 30 30 30 30 30 30 30 29 29 29 30 30 30 31 31 32 32 32 32 32 32 31 30 30 29 28 27 27
Wind_Direction
264 265 267 267 267 266 265 267 268 269 267 264 262 263 264 263 263 264 263 263 264 264 265 266 267 268 268 269 270 270 271 272 273 273 274 274 274 275
264 265 266 267 267 266 266 267 270 270 268 265 263 263 263 263 264 265 265 265 266 266 266 267 268 268 269 270 270 271 272 273 273 274 275 275 276 277
265 265 267 268 269 269 268 269 270 270 267 265 265 265 265 265 265 266 266 267 267 267 268 269 269 269 270 271 272 273 273 274 275 275 275 276 278 278
265 266 268 268 269 268 268 269 270 270 267 266 267 267 267 267 268 268 267 268 269 269 269 269 270 271 271 272 273 274 275 276 276 276 277 277 278 278
265 266 267 268 268 268 268 269 270 270 269 268 268 268 268 270 270 269 269 270 271 271 270 271 271 272 273 273 274 275 276 277 278 279 278 277 277 277
266 266 268 268 269 269 269 270 270 270 270 269 269 268 269 270 270 271 272 273 274 274 273 273 272 273 274 274 275 276 277 278 278 279 278 278 277 277
265 266 268 270 270 270 269 268 268 269 270 271 270 269 269 270 271 273 274 276 277 276 276 274 274 275 276 276 277 277 278 278 278 278 278 277 277 277
265 266 267 268 269 269 269 269 269 269 270 271 271 270 270 272 273 274 276 277 277 277 277 277 276 277 278 277 278 278 278 278 278 279 278 278 278 279
266 266 267 268 269 269 269 269 270 271 271 271 271 272 272 273 273 274 277 278 278 277 277 277 278 279 280 280 279 279 279 278 279 279 280 279 279 280
267 267 268 269 269 270 270 269 269 271 272 272 274 274 274 274 274 276 278 278 278 279 278 279 279 280 281 282 282 281 281 280 280 280 279 279 279 280
267 267 268 268 269 269 270 270 270 271 272 273 275 275 274 275 276 277 278 279 280 280 281 281 282 283 283 283 283 282 282 282 281 281 279 278 278 279
266 267 268 269 268 268 269 270 270 271 272 273 274 276 276 276 277 278 279 280 281 281 282 283 284 284 285 284 283 283 283 284 283 281 280 279 278 278
266 268 268 269 268 267 268 269 270 271 271 272 273 276 278 278 278 279 281 282 282 283 284 284 285 285 285 284 283 283 284 284 284 283 281 279 279 279
267 268 268 268 268 268 268 269 269 270 270 272 274 276 279 279 279 279 281 283 283 284 285 286 286 286 286 285 284 284 284 284 284 283 282 281 281 281
267 267 267 268 269 269 268 269 269 269 270 272 275 277 279 280 280 280 281 283 284 285 286 287 287 286 285 285 284 284 284 284 285 285 284 283 283 283
265 267 268 268 268 268 269 269 269 270 271 274 276 277 279 281 281 282 282 283 285 286 287 288 287 286 285 285 285 286 285 284 285 285 285 284 284 284
264 266 267 268 268 268 269 269 270 271 273 275 276 277 279 281 283 283 284 285 285 287 288 288 288 286 285 286 287 288 287 286 285 285 284 284 284 284
264 265 267 268 269 268 269 269 270 272 273 275 276 277 278 281 283 285 285 286 286 286 287 288 288 288 288 288 289 289 288 288 288 287 284 284 283 283
263 265 267 268 268 268 269 269 270 271 273 275 276 276 278 280 283 285 286 286 286 287 287 288 288 289 290 290 290 290 290 289 289 288 287 285 284 283
263 265 266 267 268 268 269 269 270 271 273 275 276 277 278 280 282 283 285 286 287 288 288 289 290 290 290 290 290 290 290 291 290 289 287 285 285 284
263 265 267 268 268 268 269 270 271 272 274 275 277 278 278 280 281 283 284 286 287 288 289 290 290 291 290 291 291 290 290 291 291 291 289 287 285 285
262 264 266 266 267 268 269 270 271 272 273 274 276 278 278 279 281 283 284 285 287 289 290 291 292 293 293 293 292 292 291 291 291 290 290 289 287 286
260 262 263 265 266 268 270 271 272 272 273 274 276 278 279 280 281 283 284 286 288 290 292 293 294 295 295 295 294 294 293 292 291 291 291 292 290 287